Time,TemperatureF,DewpointF,PressureIn,WindDirection,WindDirectionDegrees,WindSpeedMPH,WindSpeedGustMPH,Humidity,HourlyPrecipIn,Conditions,Clouds,dailyrainin,SoftwareType,DateUTC
2013-12-26 00:00:00,51.1,17.4,30.15,SW,225,0.0,3.1,26,0.00,,---,0.00,VWS V14.01,2013-12-26 08:00:00,
2013-12-26 01:00:00,53.2,19.3,30.12,WNW,292,2.9,4.3,26,0.00,,---,0.00,VWS V14.01,2013-12-26 09:00:00,
2013-12-26 02:00:00,50.7,18.0,30.12,West,270,2.0,4.0,27,0.00,,---,0.00,VWS V14.01,2013-12-26 10:00:00,
2013-12-26 03:00:00,51.3,17.6,30.12,NNW,338,2.9,6.5,26,0.00,,---,0.00,VWS V14.01,2013-12-26 11:00:00,
2013-12-26 04:00:00,47.7,16.2,30.12,WNW,292,0.0,4.0,28,0.00,,---,0.00,VWS V14.01,2013-12-26 12:00:00,
2013-12-26 05:00:00,47.5,17.6,30.09,NNW,338,1.6,3.1,30,0.00,,---,0.00,VWS V14.01,2013-12-26 13:00:00,
2013-12-26 06:00:00,45.9,17.0,30.12,North,0,0.0,4.3,31,0.00,,---,0.00,VWS V14.01,2013-12-26 14:00:00,
2013-12-26 07:00:00,43.5,18.4,30.12,West,270,0.0,2.2,36,0.00,,---,0.00,VWS V14.01,2013-12-26 15:00:00,
2013-12-26 08:00:00,53.8,23.9,30.12,NNW,338,2.5,4.0,31,0.00,,---,0.00,VWS V14.01,2013-12-26 16:00:00,
2013-12-26 09:00:00,65.3,26.6,30.15,North,0,2.7,4.0,23,0.00,,---,0.00,VWS V14.01,2013-12-26 17:00:00,
2013-12-26 10:00:00,75.9,-18.4,30.15,North,0,2.9,5.6,2,0.00,,---,0.00,VWS V14.01,2013-12-26 18:00:00,
2013-12-26 11:00:00,83.1,-13.8,30.12,North,0,6.3,7.8,2,0.00,,---,0.00,VWS V14.01,2013-12-26 19:00:00,
2013-12-26 12:00:00,84.4,-13.0,30.12,North,0,4.3,10.1,2,0.00,,---,0.00,VWS V14.01,2013-12-26 20:00:00,
2013-12-26 13:00:00,85.8,-12.1,30.06,East,90,4.3,8.5,2,0.00,,---,0.00,VWS V14.01,2013-12-26 21:00:00,
2013-12-26 14:00:00,84.2,-13.1,30.03,East,90,10.7,12.5,2,0.00,,---,0.00,VWS V14.01,2013-12-26 22:00:00,
2013-12-26 15:00:00,82.9,-13.9,30.06,ENE,68,10.3,12.8,2,0.00,,---,0.00,VWS V14.01,2013-12-26 23:00:00,
2013-12-26 16:00:00,80.8,-15.3,30.06,East,90,7.6,13.4,2,0.00,,---,0.00,VWS V14.01,2013-12-27 00:00:00,
2013-12-26 17:00:00,75.2,-18.9,30.09,East,90,2.7,10.3,2,0.00,,---,0.00,VWS V14.01,2013-12-27 01:00:00,
2013-12-26 18:00:00,65.5,-11.8,30.12,West,270,1.6,4.7,4,0.00,,---,0.00,VWS V14.01,2013-12-27 02:00:00,
2013-12-26 19:00:00,63.1,-8.9,30.12,North,0,1.3,4.3,5,0.00,,---,0.00,VWS V14.01,2013-12-27 03:00:00,
2013-12-26 20:00:00,56.8,-9.8,30.12,East,90,1.6,3.4,6,0.00,,---,0.00,VWS V14.01,2013-12-27 04:00:00,
2013-12-26 21:00:00,54.7,-8.2,30.12,NE,45,1.3,2.7,7,0.00,,---,0.00,VWS V14.01,2013-12-27 05:00:00,
2013-12-26 22:00:00,51.1,12.5,30.15,North,0,0.0,2.7,21,0.00,,---,0.00,VWS V14.01,2013-12-27 06:00:00,
2013-12-26 23:00:00,50.9,19.0,30.15,WSW,248,0.0,6.0,28,0.00,,---,0.00,VWS V14.01,2013-12-27 07:00:00,